Wind_Speed
1 5 8 7 7 9 9 10 14 13 7 7 15 17 15 10 7 7 5 5 5 7 9 13 15 14 15 16 15 14 12 14 7 2 4 5 5 4 5 9 14 18 17 15
4 9 3 2 4 6 9 12 14 12 7 6 14 18 17 14 11 6 5 2 4 6 8 12 15 15 16 16 17 16 15 14 12 10 2 2 5 6 5 7 10 14 17 17
10 3 3 2 5 7 10 13 14 15 12 14 15 17 20 13 5 6 4 1 2 5 8 10 15 18 17 18 18 17 17 16 15 9 6 3 5 7 7 9 10 13 15 15
8 3 6 8 11 9 11 5 10 11 8 6 1 9 14 9 10 10 6 4 2 4 7 9 13 17 20 19 17 18 17 19 19 15 12 9 5 2 1 8 10 12 13 14
2 3 5 6 6 5 3 3 4 8 11 13 13 7 6 3 12 12 9 5 3 4 5 8 11 14 17 18 19 18 18 18 20 19 18 15 13 10 4 5 9 10 12 11
13 1 4 9 3 7 2 4 6 5 6 7 15 13 9 6 3 8 9 7 5 4 4 7 9 11 14 16 17 18 19 20 19 19 20 18 15 13 10 5 3 6 8 10
3 10 3 5 7 3 5 6 3 4 4 6 6 7 14 6 4 4 10 9 6 4 3 5 9 11 13 16 17 17 19 20 19 19 19 17 15 15 12 9 6 1 2 5
4 4 5 6 9 6 7 8 5 7 9 12 4 6 3 5 3 2 9 9 7 5 3 4 6 9 10 13 14 16 17 18 19 18 17 16 17 14 12 11 10 6 5 4
3 3 3 2 2 2 2 6 6 11 10 6 10 18 4 4 3 5 7 9 9 7 4 3 4 7 9 10 11 12 13 14 15 16 16 17 16 16 14 12 10 7 7 7
2 5 2 2 2 6 6 5 4 4 6 15 14 17 12 6 8 9 11 11 10 7 5 3 4 6 5 5 6 8 10 11 12 13 14 14 15 15 14 14 13 11 8 7
1 1 2 1 7 8 5 4 7 8 8 13 16 13 3 1 7 12 13 13 11 8 5 2 3 8 7 6 5 6 7 9 11 11 12 13 14 13 13 14 14 14 12 9
2 2 5 11 3 3 4 8 12 10 17 14 13 16 5 2 5 9 12 11 10 8 6 3 5 8 7 6 7 6 5 5 6 8 10 11 12 13 15 16 16 15 15 14
4 3 5 3 3 4 6 9 12 8 4 18 15 16 6 3 4 7 9 9 8 9 7 4 7 7 8 7 7 8 8 7 5 6 7 8 11 13 14 15 16 16 16 15
2 4 7 12 17 9 8 10 11 9 8 15 17 22 15 9 6 6 7 10 11 11 8 5 5 8 9 9 11 12 11 9 9 7 6 7 8 10 11 13 14 15 16 17
3 5 6 12 18 16 18 19 20 17 17 13 24 19 17 9 5 5 7 9 10 10 7 5 5 8 10 10 13 17 16 16 15 13 12 8 7 8 10 12 13 14 15 16
4 4 1 6 12 11 17 21 21 23 23 22 25 29 19 19 15 10 7 4 7 3 4 4 4 7 11 15 17 17 18 17 16 20 19 13 11 8 9 10 12 14 15 15
6 3 1 8 4 8 11 14 18 19 18 13 18 25 16 13 12 4 4 5 7 5 3 4 5 9 11 16 17 20 21 19 18 18 23 19 15 12 9 8 9 11 14 16
4 4 3 6 1 9 7 3 8 11 15 16 18 18 19 10 7 4 3 5 4 2 4 5 9 13 16 17 19 20 20 21 21 20 21 23 20 17 12 9 8 9 12 14
5 4 4 4 8 17 18 9 7 10 19 15 16 16 15 14 5 11 7 5 5 4 8 10 12 12 15 17 17 19 21 20 20 21 23 25 26 22 16 13 10 9 10 12
4 5 6 5 7 10 12 9 2 5 14 13 13 15 13 12 9 8 3 3 4 11 13 12 9 10 11 12 16 18 19 20 22 22 24 25 27 24 20 16 13 11 10 11
3 5 14 13 12 11 10 6 0 8 13 14 13 13 14 12 5 2 0 3 6 7 8 9 8 10 13 16 17 19 20 20 19 20 22 22 23 22 23 19 17 14 12 11
7 5 5 5 7 13 8 0 6 8 12 13 14 16 17 17 15 12 10 7 8 10 9 8 9 11 15 16 14 14 13 16 21 22 22 21 21 21 23 21 18 16 13 12
4 5 4 5 6 9 7 5 6 9 9 12 12 14 13 15 15 13 12 11 13 14 14 14 14 17 16 15 13 16 16 19 21 23 24 24 22 22 23 23 22 18 15 13
5 5 4 6 3 11 8 4 8 9 9 10 10 12 12 13 15 15 13 13 15 16 16 15 16 18 20 18 17 16 17 17 22 27 26 23 19 19 19 21 23 22 17 14
4 4 5 10 14 10 6 9 11 11 11 12 16 16 13 14 15 16 14 18 18 18 17 17 18 20 23 21 21 19 18 20 24 24 23 20 18 18 18 19 21 22 24 21
4 3 5 7 8 5 10 11 15 13 14 18 19 17 19 19 15 22 19 21 20 19 19 19 22 25 27 25 25 22 22 23 24 22 20 18 17 17 17 18 19 22 25 20
Wind_Direction
150 238 233 264 246 311 292 283 278 280 287 294 269 276 282 268 253 262 285 319 342 356 359 2 1 2 1 8 12 8 5 5 13 124 100 125 140 157 197 211 213 207 197 198
216 246 5 341 283 264 263 269 271 284 288 267 282 280 277 261 236 260 274 296 356 2 8 13 11 14 15 13 17 19 12 18 29 47 83 140 171 167 189 199 207 204 198 199
263 20 69 230 245 260 257 267 279 282 300 270 273 281 260 236 195 209 215 207 35 27 18 19 22 20 21 21 17 22 21 28 42 48 41 95 122 131 147 168 186 195 194 197
268 52 252 265 266 270 285 313 269 277 288 279 141 289 290 203 205 210 197 193 109 51 45 34 27 27 24 24 26 26 29 33 44 51 58 43 55 110 153 192 183 186 196 198
66 213 225 248 255 227 288 349 284 278 278 290 266 248 276 225 217 206 196 175 135 70 50 47 37 33 31 27 29 32 34 38 39 50 54 58 43 48 65 162 174 182 188 201
268 102 263 245 306 250 2 283 265 268 276 259 258 235 278 293 283 210 173 182 155 105 73 60 52 41 38 32 31 33 36 38 38 42 45 52 50 47 42 65 139 178 184 197
219 219 213 249 253 191 227 264 283 242 220 256 23 289 250 315 12 311 179 175 156 139 90 53 42 37 34 32 28 28 29 32 34 42 42 42 45 44 43 36 20 24 221 224
279 239 203 159 242 330 217 219 260 287 291 311 108 251 293 21 350 246 161 159 154 155 130 64 48 40 32 31 29 26 25 27 26 31 35 37 42 41 34 26 18 1 326 317
274 232 113 30 335 276 105 223 281 283 265 272 264 274 200 93 119 157 169 182 177 166 160 108 56 40 27 21 26 26 27 28 28 26 25 28 33 36 31 25 28 17 6 341
63 283 70 72 248 225 242 9 252 206 270 273 275 278 271 186 202 204 198 202 187 179 175 136 54 19 10 5 9 19 27 29 26 27 29 25 23 26 28 26 22 13 0 351
230 247 169 181 208 269 200 233 225 279 263 276 280 271 44 276 218 210 214 209 198 191 183 158 359 351 332 325 342 4 16 15 17 21 24 26 25 23 24 23 16 10 4 347
158 248 264 274 59 309 282 276 266 248 264 251 260 270 155 199 279 233 217 213 203 199 197 247 317 333 331 318 322 331 345 1 6 11 16 18 19 20 21 17 15 9 2 357
186 199 289 253 232 218 246 243 241 271 287 262 265 274 105 285 275 257 240 216 199 214 218 285 320 328 332 320 319 313 310 318 331 349 1 7 10 12 14 12 12 8 4 0
156 213 240 264 284 328 275 264 254 232 261 268 259 273 277 240 241 246 242 231 217 220 231 287 297 314 316 313 306 298 287 282 289 303 317 337 354 358 1 4 6 7 5 1
230 243 229 258 274 285 278 273 267 253 246 255 269 273 268 284 264 241 250 246 225 225 260 280 310 312 310 309 299 299 289 274 268 272 279 296 319 336 344 348 353 360 3 3
190 259 316 278 271 274 275 268 268 259 255 258 260 266 270 278 273 241 228 256 259 250 241 268 288 303 307 312 317 312 299 290 281 263 264 272 288 308 326 335 345 350 355 358
179 217 193 271 21 308 274 267 260 256 251 251 259 262 297 286 281 300 259 241 246 235 274 295 295 290 301 308 310 307 311 305 291 272 260 259 266 279 295 311 331 345 352 353
179 182 236 279 338 268 273 326 276 283 277 273 261 269 274 273 277 289 217 237 229 248 275 281 281 301 314 313 314 316 308 296 287 279 267 257 254 261 268 279 299 323 336 343
232 214 246 248 251 279 298 302 316 267 283 291 295 279 276 275 289 279 212 212 231 244 250 258 286 298 304 313 321 322 316 307 303 286 270 262 248 249 253 260 274 295 314 327
236 259 238 212 257 271 294 4 19 303 283 298 279 288 294 307 283 295 110 164 244 272 276 291 301 306 319 333 332 328 324 320 312 307 297 286 265 252 251 255 260 272 287 305
165 211 229 242 252 258 291 334 69 269 308 357 333 311 302 286 272 40 127 282 307 302 305 318 323 332 334 334 333 329 328 325 327 321 313 300 276 260 257 257 255 259 268 284
191 196 207 229 252 273 17 87 270 341 329 352 348 343 347 337 329 327 324 330 344 333 337 353 333 328 329 333 333 322 316 318 316 317 314 310 297 275 261 256 257 257 260 271
241 220 272 232 270 347 342 57 37 8 348 345 340 334 337 322 319 322 315 314 315 317 321 330 328 320 320 321 319 309 307 310 311 307 307 308 303 287 273 258 253 250 252 252
230 187 242 294 241 298 341 50 20 2 347 337 332 328 323 314 312 312 316 314 313 311 310 321 320 309 306 311 308 301 305 307 303 306 305 304 299 293 278 261 248 242 232 227
278 156 249 270 285 330 281 11 354 336 334 328 328 317 311 310 308 312 312 309 306 307 307 309 306 301 299 303 298 298 298 299 301 301 299 293 287 281 273 257 245 239 241 235
186 237 259 286 356 291 296 332 329 323 329 323 319 315 312 307 306 307 301 303 304 302 301 298 294 293 294 296 293 293 293 293 294 288 288 284 282 277 269 261 259 250 246 240
Height
833 829 822 812 815 819 823 821 817 808 808 822 810 800 795 793 808 807 808 810 811 812 813 813 811 809 807 802 798 796 793 789 788 788 789 789 790 791 793 793 795 797 800 806
834 825 820 828 830 831 826 823 815 808 810 821 808 798 791 788 800 807 810 812 815 815 814 814 814 811 808 806 803 798 796 792 788 788 790 790 791 792 793 793 796 798 801 803
828 826 832 833 831 833 827 825 819 816 814 812 811 796 780 779 799 810 815 817 818 818 818 817 815 814 812 808 806 802 799 796 792 790 790 792 791 791 795 796 797 799 800 803
831 830 835 834 833 828 828 817 821 823 823 815 815 803 780 776 800 808 812 813 817 819 819 820 818 816 815 812 810 807 803 799 796 794 793 793 792 793 795 796 797 799 801 804
827 834 835 834 828 827 822 825 824 824 822 816 807 816 777 781 789 798 807 814 819 822 822 821 821 819 818 817 813 810 808 805 802 799 798 797 796 795 797 797 798 801 803 806
833 838 836 828 829 831 831 829 827 826 824 825 802 799 782 773 787 785 803 814 820 822 824 823 823 822 821 819 817 815 811 809 806 804 802 802 802 801 800 801 803 803 804 807
829 830 831 834 832 833 835 830 828 825 835 816 807 803 783 784 793 794 805 814 820 823 824 825 825 824 823 821 820 818 815 813 811 808 807 807 806 805 805 805 805 806 807 808
822 819 833 832 830 825 828 831 829 821 806 802 816 812 779 807 806 803 808 816 821 822 825 826 826 825 825 823 822 821 819 817 815 813 812 810 807 808 808 808 808 808 809 810
824 823 836 839 836 834 829 836 830 834 831 846 804 789 809 811 814 815 818 820 819 822 824 825 825 825 825 825 823 822 821 820 819 817 815 812 810 809 810 810 810 811 811 810
840 837 838 840 840 836 835 833 837 838 839 821 794 786 784 803 811 816 818 816 817 821 824 825 826 826 825 826 825 824 822 822 821 819 817 816 814 812 811 810 810 810 810 811
844 846 833 839 833 824 834 839 841 832 825 818 809 788 792 797 798 809 811 812 814 820 823 825 826 826 825 826 825 825 823 822 821 820 819 818 817 816 815 812 811 810 808 808
844 848 841 828 833 841 842 834 830 835 823 804 811 793 797 801 804 802 806 809 812 818 822 824 825 825 824 824 824 824 824 823 822 821 820 819 819 818 816 814 813 811 809 808
852 852 845 827 839 841 844 831 835 835 850 826 821 795 806 811 809 807 806 809 814 819 821 822 823 823 823 823 824 823 823 823 822 821 821 820 819 818 817 816 813 812 810 808
855 855 846 833 823 830 841 834 834 845 842 819 809 803 799 804 810 809 809 809 813 819 821 822 823 823 823 823 823 823 822 822 821 821 820 820 819 818 818 816 814 812 810 808
858 860 856 850 844 844 842 842 837 838 837 838 810 815 805 806 810 813 812 809 810 814 819 822 823 824 823 822 822 821 821 820 819 819 818 818 818 817 816 815 813 811 810 808
866 852 863 863 847 847 849 840 835 829 829 825 818 809 802 801 802 807 813 816 814 817 821 822 822 822 822 821 820 818 816 816 817 816 815 816 816 815 814 813 811 810 809 807
864 857 870 847 860 861 852 828 819 819 818 825 824 805 807 808 808 810 810 814 816 817 819 820 821 821 821 819 818 816 814 812 812 812 812 813 813 812 812 811 811 809 808 807
862 863 858 855 868 855 811 822 822 821 817 812 808 809 808 812 811 811 814 814 814 816 817 818 819 819 818 816 815 813 811 808 807 807 807 808 809 809 809 809 809 808 807 805
863 860 858 861 844 827 818 808 811 817 811 806 800 800 801 801 803 805 807 812 813 814 815 816 817 816 815 813 811 809 806 805 805 803 801 800 802 804 805 805 806 805 804 803
870 869 863 854 857 842 805 809 821 819 815 801 800 798 798 798 804 799 807 810 812 812 812 813 813 813 812 811 808 805 804 802 801 801 798 797 798 800 800 801 802 802 802 801
869 867 861 851 846 829 812 815 822 829 818 811 808 805 803 802 805 808 809 810 812 813 813 812 812 811 810 808 806 804 803 800 799 797 795 793 793 795 796 797 798 798 799 798
849 854 849 846 844 837 819 824 827 834 827 827 825 821 820 814 811 811 810 809 809 811 811 811 811 809 808 807 806 804 803 800 797 795 793 791 790 790 791 791 792 793 794 794
846 833 829 831 817 821 825 836 843 842 838 834 836 833 829 827 823 821 817 813 811 811 812 811 809 807 806 805 804 802 800 798 795 792 790 788 787 786 786 786 786 787 788 789
837 838 840 834 821 822 829 838 841 842 842 842 841 840 836 832 829 825 821 818 815 814 813 811 809 807 804 803 802 800 797 795 792 789 786 784 783 781 781 781 781 781 782 783
827 841 833 829 823 832 825 834 840 841 842 843 843 841 838 835 830 827 823 821 817 814 813 811 809 805 801 800 797 796 794 792 789 785 782 780 778 777 776 775 774 774 774 775
826 827 830 825 837 845 839 839 841 841 844 844 842 837 836 835 832 829 823 820 817 814 812 809 806 803 798 795 791 790 789 787 784 781 778 776 774 772 771 769 767 766 766 768